Flag for Switzerland Weather past 2 weeks in Yverdon-les-Bains, Vaud, Switzerland

Now
42 °F

Quite cool.


Feels Like: 34 °F
Forecast: 28 / 42 °F
Wind: 14 mph from Northeast

Location: Payerne

Current Time: Mar 5, 2015 at 6:13:17 PM

Latest Report: Mar 5, 2015 at 5:00 PM


Visibility: N/A

Pressure: 30.55 "Hg

Humidity: 39%

Dew point: 18 °F

Location of Yverdon-les-BainsLocation

Historic Weather in Yverdon-les-Bains — Graph

°F

Yverdon-les-Bains temperature yesterday

Maximum temperature yesterday: 45 °F (at 12:00 AM)
Minimum temperature yesterday: 33 °F (at 9:00 PM)
Average temperature yesterday: 39 °F

Past Weeks' High & Low Weather Summary

 TemperatureHumidityPressure
High52 °F (Mar 2, 3:00 PM)100% (Feb 20, 7:00 AM)30.69 "Hg (Feb 20, 7:00 AM)
Low25 °F (Feb 26, 8:00 AM)28% (Feb 20, 3:00 PM)29.61 "Hg (Feb 21, 9:00 AM)
Average38 °F78%30.09 "Hg
* Reported Feb 18 4:00 PM — Mar 5 4:00 PM, Yverdon-les-Bains, Weather by CustomWeather, © 2015

Note: Actual official high and low records may vary slightly from our data, if they occured in-between our weather recording intervals... More about our weather records

Advertising

Yverdon-les-Bains weather history for previous 24 hours

 ConditionsComfort  
Time TempWeatherWind HumidityBarometerVisibility
4:00 PM
Thu, Mar 5
43 °FQuite cool.13 mph42%30.54 "HgN/A
3:00 PM43 °FQuite cool.13 mph52%30.54 "HgN/A
2:00 PM42 °FQuite cool.12 mph48%30.56 "HgN/A
1:00 PM41 °FPartly sunny.14 mph48%30.58 "Hg25 mi
12:00 PM40 °FChilly.12 mph51%30.59 "HgN/A
11:00 AM38 °FChilly.9 mph60%30.59 "HgN/A
10:00 AM38 °FPassing clouds.10 mph65%30.59 "Hg14 mi
9:00 AM35 °FChilly.5 mph76%30.60 "HgN/A
8:00 AM32 °FChilly.3 mph86%30.59 "HgN/A
7:00 AM31 °FPassing clouds.3 mph84%30.58 "Hg11 mi
6:00 AM30 °FChilly.3 mph92%30.58 "HgN/A
5:00 AM32 °FChilly.3 mph89%30.56 "HgN/A
3:00 AM35 °FChilly.7 mph82%30.54 "HgN/A
2:00 AM32 °FChilly.3 mph87%30.54 "HgN/A
1:00 AM35 °FPassing clouds.3 mph74%30.53 "Hg14 mi
12:00 AM33 °FChilly.3 mph86%30.53 "HgN/A
11:00 PM
Wed, Mar 4
33 °FChilly.2 mph83%30.52 "HgN/A
9:00 PM33 °FChilly.2 mph81%30.49 "HgN/A
8:00 PM35 °FChilly.2 mph75%30.46 "HgN/A
7:00 PM37 °FPassing clouds.3 mph71%30.44 "Hg17 mi
6:00 PM38 °FChilly.7 mph76%30.40 "HgN/A
Weather by CustomWeather, © 2015

See weather overviewHow to use our weather pages